Location: Proctor
(47.8934°N, 114.3048°W)
Time: 04:44:10
(UTC+00:00)

AO-109 - Pass Details

Date: 08 July 2022
Orbit: 470 x 506 km, 60.7° (Epoch: 07 August)

Event Time Altitude Azimuth Distance (km) Brightness Sun altitude
Exits shadow 10:49:14 - 256° (WSW) 1,897 ? -8.1°
Reaches altitude 10° 10:49:53 10° 260° (W) 1,655 ? -8.1°
Maximum altitude 10:53:16 33° 326° (NNW) 831 ? -7.7°
Drops below altitude 10° 10:56:44 10° 33° (NNE) 1,683 ? -7.3°
Sets 10:59:03 0° 43° (NE) 2,575 ? -7.0°
